Time,TemperatureF,DewpointF,PressureIn,WindDirection,WindDirectionDegrees,WindSpeedMPH,WindSpeedGustMPH,Humidity,HourlyPrecipIn,Conditions,Clouds,dailyrainin,SoftwareType,DateUTC
2013-12-02 00:09:00,53.0,33.0,30.09,NW,306,0.0,0.0,47,0.00,,,0.00,weatherlink.com 1.10,2013-12-02 08:09:00,
2013-12-02 00:24:00,52.2,32.0,30.09,NW,309,1.0,5.0,47,0.00,,,0.00,weatherlink.com 1.10,2013-12-02 08:24:00,
2013-12-02 00:39:00,51.4,33.0,30.08,NW,309,4.0,5.0,49,0.00,,,0.00,weatherlink.com 1.10,2013-12-02 08:39:00,
2013-12-02 00:54:00,51.1,32.0,30.08,NW,309,1.0,3.0,49,0.00,,,0.00,weatherlink.com 1.10,2013-12-02 08:54:00,
2013-12-02 01:09:00,51.2,31.0,30.08,WNW,302,0.0,4.0,47,0.00,,,0.00,weatherlink.com 1.10,2013-12-02 09:09:00,
2013-12-02 01:24:00,50.6,32.0,30.08,NW,314,0.0,3.0,50,0.00,,,0.00,weatherlink.com 1.10,2013-12-02 09:24:00,
2013-12-02 01:39:00,50.3,32.0,30.08,NW,314,0.0,0.0,50,0.00,,,0.00,weatherlink.com 1.10,2013-12-02 09:39:00,
2013-12-02 01:54:00,49.9,33.0,30.07,NW,314,0.0,1.0,52,0.00,,,0.00,weatherlink.com 1.10,2013-12-02 09:54:00,
2013-12-02 02:09:00,49.6,32.0,30.07,NW,314,0.0,2.0,51,0.00,,,0.00,weatherlink.com 1.10,2013-12-02 10:09:00,
2013-12-02 02:24:00,48.8,33.0,30.06,NW,314,1.0,2.0,55,0.00,,,0.00,weatherlink.com 1.10,2013-12-02 10:24:00,
2013-12-02 02:39:00,49.3,31.0,30.06,WNW,293,1.0,6.0,50,0.00,,,0.00,weatherlink.com 1.10,2013-12-02 10:39:00,
2013-12-02 02:54:00,49.9,34.0,30.05,WNW,293,0.0,1.0,54,0.00,,,0.00,weatherlink.com 1.10,2013-12-02 10:54:00,
2013-12-02 03:09:00,49.4,32.0,30.04,South,173,0.0,4.0,51,0.00,,,0.00,weatherlink.com 1.10,2013-12-02 11:09:00,
2013-12-02 03:24:00,49.8,32.0,30.03,SW,223,0.0,1.0,51,0.00,,,0.00,weatherlink.com 1.10,2013-12-02 11:24:00,
2013-12-02 03:39:00,49.0,33.0,30.04,SSW,200,1.0,1.0,55,0.00,,,0.00,weatherlink.com 1.10,2013-12-02 11:39:00,
2013-12-02 03:55:00,47.5,33.0,30.03,SW,236,2.0,3.0,57,0.00,,,0.00,weatherlink.com 1.10,2013-12-02 11:55:00,
2013-12-02 04:10:00,48.6,31.0,30.04,WNW,296,2.0,4.0,52,0.00,,,0.00,weatherlink.com 1.10,2013-12-02 12:10:00,
2013-12-02 04:25:00,49.1,31.0,30.04,WNW,296,0.0,1.0,50,0.00,,,0.00,weatherlink.com 1.10,2013-12-02 12:25:00,
2013-12-02 04:40:00,50.5,31.0,30.04,WNW,296,0.0,2.0,48,0.00,,,0.00,weatherlink.com 1.10,2013-12-02 12:40:00,
2013-12-02 04:55:00,48.9,32.0,30.04,WNW,296,1.0,2.0,53,0.00,,,0.00,weatherlink.com 1.10,2013-12-02 12:55:00,
2013-12-02 05:10:00,48.1,32.0,30.05,WNW,296,2.0,2.0,54,0.00,,,0.00,weatherlink.com 1.10,2013-12-02 13:10:00,
2013-12-02 05:25:00,47.4,32.0,30.05,WNW,296,1.0,3.0,56,0.00,,,0.00,weatherlink.com 1.10,2013-12-02 13:25:00,
2013-12-02 05:40:00,46.8,33.0,30.05,WNW,296,1.0,2.0,59,0.00,,,0.00,weatherlink.com 1.10,2013-12-02 13:40:00,
2013-12-02 05:55:00,46.5,32.0,30.05,South,169,0.0,2.0,58,0.00,,,0.00,weatherlink.com 1.10,2013-12-02 13:55:00,
2013-12-02 06:10:00,46.6,33.0,30.06,South,169,0.0,0.0,60,0.00,,,0.00,weatherlink.com 1.10,2013-12-02 14:10:00,
2013-12-02 06:25:00,46.5,33.0,30.06,South,169,0.0,0.0,59,0.00,,,0.00,weatherlink.com 1.10,2013-12-02 14:25:00,
2013-12-02 06:40:00,47.6,33.0,30.06,South,169,0.0,0.0,58,0.00,,,0.00,weatherlink.com 1.10,2013-12-02 14:40:00,
2013-12-02 06:55:00,47.6,33.0,30.06,South,169,0.0,1.0,58,0.00,,,0.00,weatherlink.com 1.10,2013-12-02 14:55:00,
2013-12-02 07:10:00,47.2,32.0,30.06,South,169,0.0,1.0,57,0.00,,,0.00,weatherlink.com 1.10,2013-12-02 15:10:00,
2013-12-02 07:25:00,48.1,34.0,30.05,South,169,0.0,0.0,59,0.00,,,0.00,weatherlink.com 1.10,2013-12-02 15:25:00,
2013-12-02 07:40:00,48.3,36.0,30.05,South,169,0.0,0.0,63,0.00,,,0.00,weatherlink.com 1.10,2013-12-02 15:40:00,
2013-12-02 07:55:00,48.8,37.0,30.05,SW,233,1.0,3.0,65,0.00,,,0.00,weatherlink.com 1.10,2013-12-02 15:55:00,
2013-12-02 08:10:00,50.1,37.0,30.05,SSE,150,0.0,2.0,62,0.00,,,0.00,weatherlink.com 1.10,2013-12-02 16:10:00,
2013-12-02 08:25:00,52.0,40.0,30.05,SSE,150,0.0,0.0,64,0.00,,,0.00,weatherlink.com 1.10,2013-12-02 16:25:00,
2013-12-02 08:40:00,54.2,42.0,30.05,SSE,150,0.0,2.0,63,0.00,,,0.00,weatherlink.com 1.10,2013-12-02 16:40:00,
2013-12-02 08:55:00,56.6,41.0,30.04,SSE,150,0.0,1.0,56,0.00,,,0.00,weatherlink.com 1.10,2013-12-02 16:55:00,
2013-12-02 09:10:00,59.6,40.0,30.04,SSE,150,0.0,2.0,49,0.00,,,0.00,weatherlink.com 1.10,2013-12-02 17:10:00,
2013-12-02 09:25:00,61.7,38.0,30.05,ENE,71,0.0,2.0,42,0.00,,,0.00,weatherlink.com 1.10,2013-12-02 17:25:00,
2013-12-02 09:40:00,63.6,41.0,30.04,ENE,71,0.0,1.0,43,0.00,,,0.00,weatherlink.com 1.10,2013-12-02 17:40:00,
2013-12-02 09:55:00,66.0,41.0,30.04,ENE,71,0.0,0.0,40,0.00,,,0.00,weatherlink.com 1.10,2013-12-02 17:55:00,
2013-12-02 10:10:00,68.0,43.0,30.03,ENE,71,0.0,1.0,40,0.00,,,0.00,weatherlink.com 1.10,2013-12-02 18:10:00,
2013-12-02 10:25:00,70.1,45.0,30.04,ENE,71,0.0,1.0,40,0.00,,,0.00,weatherlink.com 1.10,2013-12-02 18:25:00,
2013-12-02 10:40:00,72.7,39.0,30.04,North,355,2.0,2.0,30,0.00,,,0.00,weatherlink.com 1.10,2013-12-02 18:40:00,
2013-12-02 10:55:00,74.6,34.0,30.03,WSW,242,2.0,9.0,23,0.00,,,0.00,weatherlink.com 1.10,2013-12-02 18:55:00,
2013-12-02 11:11:00,75.1,35.0,30.03,WSW,256,5.0,7.0,23,0.00,,,0.00,weatherlink.com 1.10,2013-12-02 19:11:00,
2013-12-02 11:26:00,75.0,35.0,30.02,West,263,3.0,7.0,23,0.00,,,0.00,weatherlink.com 1.10,2013-12-02 19:26:00,
2013-12-02 11:41:00,74.2,37.0,30.01,WSW,256,5.0,9.0,26,0.00,,,0.00,weatherlink.com 1.10,2013-12-02 19:41:00,
2013-12-02 11:56:00,72.3,38.0,30.00,SW,234,3.0,8.0,29,0.00,,,0.00,weatherlink.com 1.10,2013-12-02 19:56:00,
2013-12-02 12:11:00,72.8,39.0,30.00,WSW,258,4.0,8.0,29,0.00,,,0.00,weatherlink.com 1.10,2013-12-02 20:11:00,
2013-12-02 12:26:00,72.8,37.0,29.99,WSW,245,4.0,6.0,27,0.00,,,0.00,weatherlink.com 1.10,2013-12-02 20:26:00,
2013-12-02 12:41:00,72.5,38.0,29.99,WSW,254,3.0,9.0,28,0.00,,,0.00,weatherlink.com 1.10,2013-12-02 20:41:00,
2013-12-02 12:56:00,72.4,36.0,29.98,WSW,250,6.0,9.0,26,0.00,,,0.00,weatherlink.com 1.10,2013-12-02 20:56:00,
2013-12-02 13:11:00,72.6,38.0,29.97,West,259,4.0,8.0,28,0.00,,,0.00,weatherlink.com 1.10,2013-12-02 21:11:00,
2013-12-02 13:26:00,73.0,38.0,29.96,WSW,242,2.0,7.0,28,0.00,,,0.00,weatherlink.com 1.10,2013-12-02 21:26:00,
2013-12-02 13:41:00,73.7,38.0,29.95,WSW,254,1.0,6.0,27,0.00,,,0.00,weatherlink.com 1.10,2013-12-02 21:41:00,
2013-12-02 13:56:00,73.6,38.0,29.95,SW,236,4.0,5.0,27,0.00,,,0.00,weatherlink.com 1.10,2013-12-02 21:56:00,
2013-12-02 14:11:00,73.9,39.0,29.94,West,281,1.0,5.0,28,0.00,,,0.00,weatherlink.com 1.10,2013-12-02 22:11:00,
2013-12-02 14:26:00,73.8,37.0,29.93,WSW,238,0.0,4.0,26,0.00,,,0.00,weatherlink.com 1.10,2013-12-02 22:26:00,
2013-12-02 14:41:00,73.0,33.0,29.93,WSW,249,4.0,7.0,23,0.00,,,0.00,weatherlink.com 1.10,2013-12-02 22:41:00,
2013-12-02 14:56:00,72.1,36.0,29.92,WSW,252,5.0,7.0,27,0.00,,,0.00,weatherlink.com 1.10,2013-12-02 22:56:00,
2013-12-02 15:11:00,71.2,38.0,29.92,WSW,246,2.0,5.0,30,0.00,,,0.00,weatherlink.com 1.10,2013-12-02 23:11:00,
2013-12-02 15:26:00,70.3,41.0,29.92,WSW,246,0.0,4.0,34,0.00,,,0.00,weatherlink.com 1.10,2013-12-02 23:26:00,
2013-12-02 15:41:00,68.8,39.0,29.92,WSW,244,3.0,6.0,34,0.00,,,0.00,weatherlink.com 1.10,2013-12-02 23:41:00,
2013-12-02 15:56:00,67.9,41.0,29.92,SW,232,1.0,5.0,38,0.00,,,0.00,weatherlink.com 1.10,2013-12-02 23:56:00,
2013-12-02 16:11:00,67.1,40.0,29.92,SW,232,0.0,3.0,37,0.00,,,0.00,weatherlink.com 1.10,2013-12-03 00:11:00,
2013-12-02 16:26:00,65.9,45.0,29.91,SW,231,4.0,4.0,47,0.00,,,0.00,weatherlink.com 1.10,2013-12-03 00:26:00,
2013-12-02 16:41:00,64.9,43.0,29.91,SW,231,3.0,4.0,45,0.00,,,0.00,weatherlink.com 1.10,2013-12-03 00:41:00,
2013-12-02 16:56:00,64.1,39.0,29.91,SW,231,2.0,3.0,40,0.00,,,0.00,weatherlink.com 1.10,2013-12-03 00:56:00,
2013-12-02 17:11:00,63.1,39.0,29.90,SW,234,0.0,2.0,42,0.00,,,0.00,weatherlink.com 1.10,2013-12-03 01:11:00,
2013-12-02 17:26:00,61.5,39.0,29.90,SW,234,0.0,0.0,44,0.00,,,0.00,weatherlink.com 1.10,2013-12-03 01:26:00,
2013-12-02 17:41:00,60.0,42.0,29.90,SW,234,0.0,0.0,52,0.00,,,0.00,weatherlink.com 1.10,2013-12-03 01:41:00,
2013-12-02 17:56:00,58.8,40.0,29.91,SW,234,1.0,1.0,51,0.00,,,0.00,weatherlink.com 1.10,2013-12-03 01:56:00,
2013-12-02 18:11:00,60.0,34.0,29.91,SW,231,3.0,5.0,38,0.00,,,0.00,weatherlink.com 1.10,2013-12-03 02:11:00,
2013-12-02 18:26:00,60.0,38.0,29.92,SW,231,0.0,3.0,45,0.00,,,0.00,weatherlink.com 1.10,2013-12-03 02:26:00,
2013-12-02 18:41:00,57.4,35.0,29.92,SW,231,0.0,1.0,43,0.00,,,0.00,weatherlink.com 1.10,2013-12-03 02:41:00,
2013-12-02 18:56:00,55.9,36.0,29.91,SW,231,0.0,1.0,48,0.00,,,0.00,weatherlink.com 1.10,2013-12-03 02:56:00,
2013-12-02 19:11:00,55.2,40.0,29.91,SW,231,0.0,3.0,56,0.00,,,0.00,weatherlink.com 1.10,2013-12-03 03:11:00,
2013-12-02 19:26:00,54.4,39.0,29.91,SW,231,0.0,3.0,57,0.00,,,0.00,weatherlink.com 1.10,2013-12-03 03:26:00,
2013-12-02 19:41:00,53.3,40.0,29.91,SW,231,0.0,0.0,61,0.00,,,0.00,weatherlink.com 1.10,2013-12-03 03:41:00,
2013-12-02 19:56:00,52.5,41.0,29.90,SW,231,0.0,1.0,64,0.00,,,0.00,weatherlink.com 1.10,2013-12-03 03:56:00,
2013-12-02 20:11:00,51.8,39.0,29.90,SW,231,0.0,0.0,63,0.00,,,0.00,weatherlink.com 1.10,2013-12-03 04:11:00,
2013-12-02 20:26:00,51.0,40.0,29.90,SW,231,0.0,1.0,65,0.00,,,0.00,weatherlink.com 1.10,2013-12-03 04:26:00,
2013-12-02 20:41:00,50.9,39.0,29.90,SW,231,0.0,0.0,65,0.00,,,0.00,weatherlink.com 1.10,2013-12-03 04:41:00,
2013-12-02 20:56:00,50.0,39.0,29.90,SW,231,0.0,1.0,67,0.00,,,0.00,weatherlink.com 1.10,2013-12-03 04:56:00,
2013-12-02 21:11:00,49.6,39.0,29.90,SW,231,0.0,1.0,68,0.00,,,0.00,weatherlink.com 1.10,2013-12-03 05:11:00,
2013-12-02 21:26:00,49.9,39.0,29.89,SW,231,0.0,4.0,66,0.00,,,0.00,weatherlink.com 1.10,2013-12-03 05:26:00,
2013-12-02 21:41:00,49.4,40.0,29.89,SW,231,0.0,2.0,70,0.00,,,0.00,weatherlink.com 1.10,2013-12-03 05:41:00,
2013-12-02 21:56:00,48.9,39.0,29.89,SW,231,0.0,1.0,70,0.00,,,0.00,weatherlink.com 1.10,2013-12-03 05:56:00,
2013-12-02 22:11:00,48.2,39.0,29.89,SW,231,1.0,2.0,71,0.00,,,0.00,weatherlink.com 1.10,2013-12-03 06:11:00,
2013-12-02 22:26:00,48.0,37.0,29.89,SW,231,0.0,1.0,66,0.00,,,0.00,weatherlink.com 1.10,2013-12-03 06:26:00,
2013-12-02 22:41:00,47.9,37.0,29.89,SW,231,0.0,1.0,66,0.00,,,0.00,weatherlink.com 1.10,2013-12-03 06:41:00,
2013-12-02 22:56:00,47.8,37.0,29.89,SW,231,0.0,1.0,66,0.00,,,0.00,weatherlink.com 1.10,2013-12-03 06:56:00,
2013-12-02 23:11:00,47.5,37.0,29.89,SW,231,0.0,0.0,68,0.00,,,0.00,weatherlink.com 1.10,2013-12-03 07:11:00,
2013-12-02 23:26:00,46.8,37.0,29.89,SW,231,0.0,1.0,70,0.00,,,0.00,weatherlink.com 1.10,2013-12-03 07:26:00,
2013-12-02 23:41:00,46.3,37.0,29.89,SW,231,0.0,1.0,71,0.00,,,0.00,weatherlink.com 1.10,2013-12-03 07:41:00,
2013-12-02 23:56:00,45.8,36.0,29.88,SW,231,0.0,0.0,68,0.00,,,0.00,weatherlink.com 1.10,2013-12-03 07:56:00,